Location: Bieujac
(44.5398°N, 0.1549°W)
Time: 10:16:29
(UTC+00:00)

SL-16 R/B - Pass Details

Date: 17 November 2019
Orbit: 842 x 846 km, 71.0° (Epoch: 05 December)

Event Time Altitude Azimuth Distance (km) Brightness Sun altitude
Exits shadow 04:52:24 16° 341° (NNW) 2,055 4.0 -22.5°
Maximum altitude 04:56:56 67° 62° (ENE) 916 2.5 -21.7°
Drops below altitude 10° 05:02:33 10° 145° (SE) 2,461 5.2 -20.7°
Sets 05:05:00 0° 148° (SSE) 3,392 5.9 -20.2°
